Windom, MN

2:23 AM CDT on October 20, 2017 (GMT -0500)
Windom Municipal

Weather History for KMWM - May, 2013

Change the Weather History Date:

Tuesday, May 7, 2013

  Actual Average Record
Temperature  
Mean Temperature 56 °F -  
Max Temperature 73 °F 68 °F 90 °F (1970)
Min Temperature 39 °F 42 °F 27 °F (1989)
Degree Days  
Heating Degree Days 9    
Growing Degree Days 6 (Base 50)    
Moisture  
Dew Point 43 °F    
Average Humidity 62    
Maximum Humidity 100    
Minimum Humidity 27    
Precipitation  
Precipitation 0.00 in - - ()
Sea Level Pressure  
Sea Level Pressure 30.03 in    
Wind  
Wind Speed 1 mph (South)    
Max Wind Speed 12 mph    
Max Gust Speed -    
Visibility 8 miles    
Events Fog    
Averages and records for this station are not official NWS values.
T = Trace of Precipitation, MM = Missing Value Source: NWS Daily Summary

Daily Weather History Graph

Daily Weather History Graph

Search for Another Location

Airport or City:

Trip Planner

Search our weather history database for the weather conditions in past years. The results will help you decide how hot, cold, wet, or windy it might be!

Date:

Astronomy

May. 07, 2013 Rise Set
Actual Time 6:03 AM CDT 8:30 PM CDT
Civil Twilight 5:31 AM CDT 9:03 PM CDT
Nautical Twilight 4:51 AM CDT 9:43 PM CDT
Astronomical Twilight 4:05 AM CDT 10:29 PM CDT
Moon 4:43 AM CDT (5/7) 6:28 PM CDT (5/7)
Length of Visible Light 15h 31m
Length of Day
14h 27m
Waning Crescent, 5% of the Moon is Illuminated
May 7
Waning Crescent
May 9
New
May 17
First Quarter
May 24
Full
May 31
Last Quarter

Hourly Weather History & Observations

Time (CDT) Temp. Dew Point Humidity Pressure Visibility Wind Dir Wind Speed Gust Speed Precip Events Conditions
12:13 AM 48.2 °F 46.4 °F 93% 30.07 in 10.0 mi Calm Calm - N/A   Clear
12:33 AM 46.4 °F 46.4 °F 100% 30.08 in 7.0 mi Calm Calm - N/A   Clear
12:52 AM 48.2 °F 46.4 °F 93% 30.08 in 10.0 mi Calm Calm - N/A   Clear
1:13 AM 46.4 °F 44.6 °F 93% 30.07 in 10.0 mi Calm Calm - N/A   Clear
1:33 AM 48.2 °F 46.4 °F 93% 30.07 in 5.0 mi Calm Calm - N/A   Clear
1:52 AM 46.4 °F 44.6 °F 93% 30.07 in 7.0 mi Calm Calm - N/A   Clear
2:12 AM 44.6 °F 44.6 °F 100% 30.06 in 4.0 mi Calm Calm - N/A   Clear
2:33 AM 42.8 °F 42.8 °F 100% 30.06 in 0.2 mi Calm Calm - N/A Fog Fog
3:12 AM 42.8 °F 42.8 °F 100% 30.05 in 3.0 mi Calm Calm - N/A   Scattered Clouds
3:33 AM 41.0 °F 41.0 °F 100% 30.05 in 0.2 mi Calm Calm - N/A Fog Fog
3:52 AM 42.8 °F 42.8 °F 100% 30.05 in 0.8 mi Calm Calm - N/A   Mostly Cloudy
4:12 AM 39.2 °F 39.2 °F 100% 30.05 in 0.2 mi Calm Calm - N/A Fog Fog
4:33 AM 39.2 °F 39.2 °F 100% 30.06 in 1.5 mi Calm Calm - N/A   Mostly Cloudy
4:52 AM 41.0 °F 41.0 °F 100% 30.06 in 3.0 mi Calm Calm - N/A   Clear
5:12 AM 42.8 °F 41.0 °F 93% 30.07 in 2.0 mi Calm Calm - N/A   Clear
5:33 AM 42.8 °F 42.8 °F 100% 30.06 in 0.2 mi Calm Calm - N/A Fog Fog
5:52 AM 42.8 °F 42.8 °F 100% 30.07 in 0.2 mi Calm Calm - N/A Fog Fog
6:12 AM 41.0 °F 41.0 °F 100% 30.07 in 1.0 mi Calm Calm - N/A   Mist
6:32 AM 41.0 °F 41.0 °F 100% 30.07 in 0.2 mi Calm Calm - N/A Fog Fog
6:52 AM 42.8 °F 42.8 °F 100% 30.07 in 0.2 mi Calm Calm - N/A Fog Fog
7:13 AM 44.6 °F 42.8 °F 93% 30.07 in 2.0 mi Calm Calm - N/A   Clear
7:32 AM 46.4 °F 46.4 °F 100% 30.07 in 2.5 mi Calm Calm - N/A   Clear
7:52 AM 48.2 °F 48.2 °F 100% 30.07 in 4.0 mi Calm Calm - N/A   Clear
8:13 AM 51.8 °F 48.2 °F 88% 30.08 in 5.0 mi Calm Calm - N/A   Clear
8:32 AM 55.4 °F 50.0 °F 82% 30.08 in 10.0 mi Calm Calm - N/A   Clear
8:52 AM 59.0 °F 50.0 °F 72% 30.08 in 10.0 mi Calm Calm - N/A   Clear
9:13 AM 60.8 °F 50.0 °F 68% 30.08 in 10.0 mi Calm Calm - N/A   Clear
9:32 AM 62.6 °F 50.0 °F 63% 30.09 in 10.0 mi Calm Calm - N/A   Clear
9:52 AM 62.6 °F 48.2 °F 59% 30.08 in 10.0 mi SSE 6.9 mph - N/A   Clear
10:13 AM 64.4 °F 48.2 °F 56% 30.08 in 10.0 mi SE 3.5 mph - N/A   Clear
10:32 AM 66.2 °F 46.4 °F 49% 30.07 in 10.0 mi SSE 4.6 mph - N/A   Clear
10:52 AM 66.2 °F 46.4 °F 49% 30.07 in 10.0 mi SSW 5.8 mph - N/A   Clear
11:13 AM 66.2 °F 44.6 °F 46% 30.07 in 10.0 mi SW 11.5 mph - N/A   Clear
11:32 AM 68.0 °F 42.8 °F 40% 30.06 in 10.0 mi South 5.8 mph - N/A   Clear
11:52 AM 68.0 °F 42.8 °F 40% 30.06 in 10.0 mi South 5.8 mph - N/A   Clear
12:13 PM 69.8 °F 41.0 °F 35% 30.06 in 10.0 mi SSE 3.5 mph - N/A   Clear
12:53 PM 71.6 °F 41.0 °F 33% 30.05 in 10.0 mi South 6.9 mph - N/A   Clear
1:12 PM 71.6 °F 41.0 °F 33% 30.04 in 10.0 mi SSE 8.1 mph - N/A   Clear
1:33 PM 71.6 °F 39.2 °F 31% 30.03 in 10.0 mi SE 6.9 mph - N/A   Clear
1:52 PM 71.6 °F 37.4 °F 29% 30.03 in 10.0 mi Calm Calm - N/A   Clear
2:12 PM 73.4 °F 39.2 °F 29% 30.02 in 10.0 mi SW 4.6 mph - N/A   Clear
2:32 PM 73.4 °F 39.2 °F 29% 30.02 in 10.0 mi South 4.6 mph - N/A   Clear
2:52 PM 73.4 °F 39.2 °F 29% 30.02 in 10.0 mi SSE 5.8 mph - N/A   Clear
3:13 PM 73.4 °F 37.4 °F 27% 30.01 in 10.0 mi Calm Calm - N/A   Clear
3:32 PM 73.4 °F 39.2 °F 29% 30.00 in 10.0 mi SSE 8.1 mph - N/A   Clear
3:52 PM 73.4 °F 39.2 °F 29% 30.00 in 10.0 mi SSE 5.8 mph - N/A   Scattered Clouds
4:13 PM 71.6 °F 37.4 °F 29% 30.00 in 10.0 mi SE 6.9 mph - N/A   Scattered Clouds
4:32 PM 73.4 °F 37.4 °F 27% 30.00 in 10.0 mi South 4.6 mph - N/A   Clear
4:52 PM 73.4 °F 37.4 °F 27% 29.99 in 10.0 mi SSE 5.8 mph - N/A   Clear
5:13 PM 73.4 °F 37.4 °F 27% 29.99 in 10.0 mi South 4.6 mph - N/A   Clear
5:32 PM 71.6 °F 35.6 °F 27% 29.99 in 10.0 mi Calm Calm - N/A   Clear
5:52 PM 71.6 °F 35.6 °F 27% 29.98 in 10.0 mi Calm Calm - N/A   Clear
6:13 PM 71.6 °F 37.4 °F 29% 29.98 in 10.0 mi Calm Calm - N/A   Clear
6:32 PM 71.6 °F 41.0 °F 33% 29.97 in 10.0 mi Calm Calm - N/A   Clear
6:52 PM 71.6 °F 37.4 °F 29% 29.97 in 10.0 mi Calm Calm - N/A   Clear
7:13 PM 69.8 °F 39.2 °F 33% 29.97 in 10.0 mi Calm Calm - N/A   Clear
7:32 PM 69.8 °F 42.8 °F 38% 29.97 in 7.0 mi Calm Calm - N/A   Clear
7:53 PM 69.8 °F 41.0 °F 35% 29.97 in 10.0 mi Calm Calm - N/A   Clear
8:13 PM 66.2 °F 44.6 °F 46% 29.97 in 10.0 mi Calm Calm - N/A   Clear
8:32 PM 66.2 °F 44.6 °F 46% 29.97 in 10.0 mi SSE 3.5 mph - N/A   Clear
8:53 PM 64.4 °F 44.6 °F 49% 29.97 in 10.0 mi Calm Calm - N/A   Clear
9:13 PM 64.4 °F 44.6 °F 49% 29.97 in 10.0 mi Calm Calm - N/A   Scattered Clouds
9:32 PM 64.4 °F 46.4 °F 52% 29.98 in 10.0 mi SW 8.1 mph - N/A   Scattered Clouds
9:53 PM 62.6 °F 48.2 °F 59% 29.98 in 10.0 mi WSW 6.9 mph - N/A   Scattered Clouds
10:13 PM 60.8 °F 48.2 °F 63% 29.98 in 10.0 mi West 5.8 mph - N/A   Scattered Clouds
10:32 PM 60.8 °F 48.2 °F 63% 29.98 in 10.0 mi West 4.6 mph - N/A   Scattered Clouds
10:53 PM 60.8 °F 48.2 °F 63% 29.98 in 10.0 mi Calm Calm - N/A   Scattered Clouds
11:13 PM 60.8 °F 48.2 °F 63% 29.98 in 10.0 mi Calm Calm - N/A   Overcast
11:32 PM 60.8 °F 48.2 °F 63% 29.98 in 10.0 mi Calm Calm - N/A   Scattered Clouds
11:53 PM 57.2 °F 48.2 °F 72% 29.98 in 10.0 mi Calm Calm - N/A   Mostly Cloudy